{"data":{"norad_id":59902,"epoch":"2026-05-25T02:57:15.308640Z","epoch_age_seconds":64082,"freshness":"FRESH","line1":"1 59902U 24100T   26145.12309385 -.00000004  00000+0  93604-5 0  9992","line2":"2 59902  43.0029  53.9749 0001152 277.4561  82.6160 15.27582988112735","mean_motion":15.27582988,"eccentricity":0.0001152,"inclination_deg":43.0029,"raan_deg":53.9749,"arg_perigee_deg":277.4561,"mean_anomaly_deg":82.616,"bstar":9.3604e-6,"rev_number":11273,"period_min":94.266564324949,"perigee_km":482.24974129976,"apogee_km":483.83055651486,"semimajor_km":6861.1771489073,"source":"CELESTRAK","updated_at":"2026-05-25T13:38:19.119843Z"}}